Regional Weather Roundup
Issued by NWS Goodland, KS

Home | Current Version | Previous Version | Graphics & Text | Print | Product List | Glossary On
Versions: 1 2 3 4 5 6 7 8 9 10 11 12 13 14 15 16 17 18 19 20 21 22 23 24 25 26 27 28 29 30 31 32 33 34 35 36 37 38 39 40 41 42 43 44 45 46 47 48 49 50
000
ASUS43 KGLD 221508
RWRGLD

GOODLAND FORECAST AREA HOURLY WEATHER ROUNDUP
NATIONAL WEATHER SERVICE GOODLAND KS
900 AM MDT MON SEP 22 2014

...OFFICIAL OBSERVATIONS...

CITY           SKY/WX    TMP DP  RH WIND       PRES   REMARKS
GOODLAND KS    PTSUNNY   62  43  49 S18G26    30.27F
HILL CITY KS   SUNNY     65  46  50 S14G20    30.31F
IMPERIAL NEB   PTSUNNY   64  41  42 S15       30.24S
MCCOOK NEB     SUNNY     65  45  48 S9        30.28S
AKRON CO       LGT RAIN  60  48  64 S17G36    30.21R
BURLINGTON CO  PTSUNNY   65  44  46 S23G35    30.26S
LIMON CO       CLOUDY    57  48  72 S14       30.27R
$$

...UNOFFICIAL OBSERVATIONS...

CITY           SKY/WX    TMP DP  RH WIND       PRES   REMARKS
COLBY KS       SUNNY     66  45  45 S20G26    30.29S
GOVE KS          N/A     62  32  32 MISG        N/A
NORTON KS      SUNNY     63  43  48 SE14      30.30
SHARON SPRINGS   N/A     65  45  48 S16G26      N/A
WAKEENEY KS      N/A     64  41  43 MISG        N/A
TRENTON NEB      N/A     64  32  30 S14         N/A
KIT CARSON CO    N/A     65  48  55 N17G33      N/A
YUMA CO          N/A     61  46  58 SE12G20     N/A
$$


USA.gov is the U.S. government's official web portal to all federal, state and local government web resources and services.